EW9998 Weather Reports


time (UTC)temp
F
wind
direction
speed
knots
gust
knots
rain 1hr
in
rain 24hr
in
rain mn
in
humidity
%
barometer
mb
20260504184536 66 173 2.6 9.6 0.00 0.00 0.00 35 1006.5
20260504183033 65 138 1.7 6.1 0.00 0.00 0.00 37 1006.6
20260504181523 65 292 1.7 5.2 0.00 0.00 0.00 37 1006.6
20260504180025 65 360 1.7 7.8 0.00 0.00 0.00 36 1006.8
20260504174520 65 204 2.6 8.7 0.00 0.00 0.00 36 1006.9
20260504173019 64 360 3.5 7.8 0.00 0.00 0.00 37 1006.9
20260504171516 64 269 2.6 7.8 0.00 0.00 0.00 37 1007.2
20260504081541 32 257 0.0 0.0 0.00 0.00 0.00 91 1010.6
20260504050011 38 257 0.0 0.0 0.00 0.00 0.00 81 1010.3
20260504044512 38 257 0.0 0.0 0.00 0.00 0.00 80 1010.4
20260504043012 38 257 0.0 0.9 0.00 0.00 0.00 80 1010.4
20260504041507 38 257 0.0 0.9 0.00 0.00 0.00 80 1010.5
20260504040005 38 255 0.0 0.0 0.00 0.00 0.00 80 1010.4
20260504034508 38 255 0.0 0.0 0.00 0.00 0.00 79 1010.5
20260504033004 38 256 0.0 0.0 0.00 0.00 0.00 79 1010.5
20260504031509 38 256 0.0 0.0 0.00 0.00 0.00 78 1010.5
20260504030101 38 255 0.0 0.0 0.00 0.00 0.00 77 1010.5
20260504024545 39 255 0.0 0.0 0.00 0.00 0.00 75 1010.4
20260504023027 40 255 0.0 0.9 0.00 0.00 0.00 74 1010.4
20260504021526 41 255 0.0 0.0 0.00 0.00 0.00 72 1010.3
20260504020020 42 255 0.0 0.0 0.00 0.00 0.00 70 1010.2
20260504014516 42 256 0.0 0.0 0.00 0.00 0.00 69 1010.1
20260504013019 43 256 0.0 0.0 0.00 0.00 0.00 66 1010.1
20260504011515 44 256 0.0 0.0 0.00 0.00 0.00 65 1009.9
20260504010013 44 256 0.0 0.0 0.00 0.00 0.00 63 1009.7
20260504004532 45 255 0.0 0.0 0.00 0.00 0.00 62 1009.6
20260504003016 46 256 0.0 0.0 0.00 0.00 0.00 61 1009.6
20260504001613 47 255 0.0 0.0 0.00 0.00 0.00 57 1009.5
20260504000100 48 360 0.0 0.0 0.00 0.00 0.00 52 1009.5
20260503234554 49 360 0.0 0.9 0.00 0.00 0.00 51 1009.4
20260503233036 50 360 0.0 1.7 0.00 0.00 0.00 47 1009.3
20260503231536 50 360 1.7 4.3 0.00 0.00 0.00 46 1009.3
20260503230018 50 360 0.0 2.6 0.00 0.00 0.00 45 1009.2
20260503224517 50 271 1.7 5.2 0.00 0.00 0.00 44 1009.2
20260503223113 51 264 0.9 3.5 0.00 0.00 0.00 42 1009.1
20260503221600 51 360 0.9 7.8 0.00 0.00 0.00 40 1008.9
20260503220045 51 221 0.0 3.5 0.00 0.00 0.00 40 1008.9
20260503214553 51 360 1.7 5.2 0.00 0.00 0.00 38 1008.9
20260503213033 52 215 0.0 4.3 0.00 0.00 0.00 35 1008.5
20260503211528 52 360 0.9 7.8 0.00 0.00 0.00 34 1008.4
20260503210025 52 360 1.7 7.8 0.00 0.00 0.00 32 1008.7
20260503204528 52 360 0.9 10.4 0.00 0.00 0.00 32 1008.5
20260503203025 52 360 2.6 8.7 0.00 0.00 0.00 31 1008.6
20260503201522 52 360 0.9 6.1 0.00 0.00 0.00 31 1008.5
20260503200021 52 360 1.7 8.7 0.00 0.00 0.00 31 1008.7
20260503194521 50 360 0.0 7.0 0.00 0.00 0.00 32 1009.1
20260503193106 50 360 1.7 4.3 0.00 0.00 0.00 34 1009.1
20260503191701 49 360 1.7 7.8 0.00 0.00 0.00 34 1009.4
20260503190044 52 360 0.9 2.6 0.00 0.00 0.00 34 1009.4